| time (UTC) | temp C | wind direction | speed KPH | gust KPH | rain 1hr cm | rain 24hr cm | rain mn cm | humidity % | barometer mb |
| 20260506140406 | 18 | 263 | 3.2 | 6.4 | 0.00 | 0.00 | 0.00 | 73 | 1008.0 |
| 20260506135904 | 18 | 238 | 3.2 | 6.4 | 0.00 | 0.00 | 0.00 | 73 | 1008.1 |
| 20260506135406 | 18 | 240 | 3.2 | 4.8 | 0.00 | 0.00 | 0.00 | 73 | 1008.0 |
| 20260506134908 | 18 | 274 | 3.2 | 9.7 | 0.00 | 0.00 | 0.00 | 73 | 1008.0 |
| 20260506134404 | 18 | 284 | 3.2 | 14.5 | 0.00 | 0.00 | 0.00 | 73 | 1007.8 |
| 20260506133905 | 18 | 222 | 3.2 | 14.5 | 0.00 | 0.00 | 0.00 | 73 | 1007.9 |
| 20260506133404 | 18 | 247 | 1.6 | 9.7 | 0.00 | 0.00 | 0.00 | 74 | 1007.8 |
| 20260506132905 | 18 | 212 | 3.2 | 11.3 | 0.00 | 0.00 | 0.00 | 73 | 1007.7 |
| 20260506132405 | 18 | 279 | 4.8 | 11.3 | 0.00 | 0.00 | 0.00 | 74 | 1007.7 |
| 20260506131904 | 18 | 244 | 3.2 | 9.7 | 0.00 | 0.00 | 0.00 | 74 | 1007.6 |
| 20260506131406 | 18 | 316 | 3.2 | 9.7 | 0.00 | 0.00 | 0.00 | 75 | 1007.5 |
| 20260506130406 | 18 | 261 | 1.6 | 8.0 | 0.00 | 0.00 | 0.00 | 76 | 1007.4 |
| 20260506125904 | 18 | 321 | 1.6 | 8.0 | 0.00 | 0.00 | 0.00 | 76 | 1007.3 |
| 20260506125405 | 18 | 272 | 1.6 | 11.3 | 0.00 | 0.00 | 0.00 | 76 | 1007.4 |
| 20260506124903 | 18 | 276 | 3.2 | 11.3 | 0.00 | 0.00 | 0.00 | 76 | 1007.5 |
| 20260506124404 | 18 | 263 | 1.6 | 8.0 | 0.00 | 0.00 | 0.00 | 77 | 1007.5 |
| 20260506123905 | 18 | 302 | 1.6 | 8.0 | 0.00 | 0.00 | 0.00 | 77 | 1007.6 |
| 20260506123403 | 18 | 260 | 1.6 | 6.4 | 0.00 | 0.00 | 0.00 | 78 | 1007.8 |
| 20260506122904 | 17 | 56 | 1.6 | 6.4 | 0.00 | 0.00 | 0.00 | 78 | 1007.8 |
| 20260506122405 | 17 | 293 | 1.6 | 6.4 | 0.00 | 0.00 | 0.00 | 78 | 1007.7 |
| 20260506121904 | 17 | 288 | 1.6 | 8.0 | 0.00 | 0.00 | 0.00 | 78 | 1007.7 |
| 20260506120905 | 17 | 287 | 1.6 | 4.8 | 0.00 | 0.00 | 0.00 | 78 | 1007.8 |
| 20260506120405 | 17 | 219 | 1.6 | 6.4 | 0.00 | 0.00 | 0.00 | 78 | 1007.8 |
| 20260506115905 | 17 | 11 | 1.6 | 6.4 | 0.00 | 0.00 | 0.00 | 78 | 1007.9 |
| 20260506114905 | 17 | 355 | 3.2 | 11.3 | 0.00 | 0.00 | 0.00 | 78 | 1007.9 |
| 20260506114407 | 17 | 145 | 1.6 | 11.3 | 0.00 | 0.00 | 0.00 | 78 | 1007.9 |
| 20260506113909 | 17 | 298 | 1.6 | 4.8 | 0.00 | 0.00 | 0.00 | 78 | 1007.8 |
| 20260506113406 | 17 | 304 | 0.0 | 4.8 | 0.00 | 0.00 | 0.00 | 78 | 1007.6 |
| 20260506112904 | 17 | 236 | 0.0 | 3.2 | 0.00 | 0.00 | 0.00 | 78 | 1007.5 |
| 20260506112406 | 17 | 283 | 1.6 | 8.0 | 0.00 | 0.00 | 0.00 | 78 | 1007.7 |
| 20260506111905 | 17 | 193 | 1.6 | 8.0 | 0.00 | 0.00 | 0.00 | 78 | 1007.7 |
| 20260506111405 | 17 | 348 | 1.6 | 6.4 | 0.00 | 0.00 | 0.00 | 78 | 1007.5 |
| 20260506110905 | 17 | 283 | 1.6 | 6.4 | 0.00 | 0.00 | 0.00 | 77 | 1007.5 |
| 20260506110404 | 17 | 273 | 1.6 | 4.8 | 0.00 | 0.00 | 0.00 | 77 | 1007.5 |
| 20260506105905 | 17 | 320 | 1.6 | 9.7 | 0.00 | 0.00 | 0.00 | 77 | 1007.7 |
| 20260506104905 | 17 | 323 | 1.6 | 8.0 | 0.00 | 0.00 | 0.00 | 77 | 1007.4 |
| 20260506104405 | 17 | 269 | 1.6 | 8.0 | 0.00 | 0.00 | 0.00 | 77 | 1007.6 |
| 20260506103404 | 17 | 205 | 1.6 | 4.8 | 0.00 | 0.00 | 0.00 | 76 | 1007.4 |
| 20260506102906 | 17 | 5 | 1.6 | 8.0 | 0.00 | 0.00 | 0.00 | 76 | 1007.6 |
| 20260506101905 | 17 | 207 | 1.6 | 9.7 | 0.00 | 0.00 | 0.00 | 76 | 1007.3 |
| 20260506101403 | 17 | 232 | 1.6 | 9.7 | 0.00 | 0.00 | 0.00 | 76 | 1007.4 |
| 20260506100404 | 17 | 290 | 1.6 | 6.4 | 0.00 | 0.00 | 0.00 | 75 | 1007.3 |
| 20260506095902 | 17 | 35 | 1.6 | 4.8 | 0.00 | 0.00 | 0.00 | 75 | 1007.4 |
| 20260506095403 | 17 | 318 | 1.6 | 4.8 | 0.00 | 0.00 | 0.00 | 74 | 1007.2 |
| 20260506094905 | 17 | 39 | 1.6 | 4.8 | 0.00 | 0.00 | 0.00 | 74 | 1007.1 |
| 20260506094402 | 17 | 246 | 1.6 | 4.8 | 0.00 | 0.00 | 0.00 | 74 | 1007.2 |
| 20260506093902 | 17 | 314 | 1.6 | 4.8 | 0.00 | 0.00 | 0.00 | 73 | 1007.4 |
| 20260506093403 | 17 | 291 | 1.6 | 4.8 | 0.00 | 0.00 | 0.00 | 73 | 1007.6 |
| 20260506092904 | 17 | 248 | 1.6 | 4.8 | 0.00 | 0.00 | 0.00 | 73 | 1007.5 |
| 20260506092405 | 17 | 300 | 1.6 | 4.8 | 0.00 | 0.00 | 0.00 | 72 | 1007.4 |
| 20260506091905 | 17 | 289 | 1.6 | 6.4 | 0.00 | 0.00 | 0.00 | 72 | 1007.5 |
| 20260506091405 | 17 | 310 | 1.6 | 6.4 | 0.00 | 0.00 | 0.00 | 71 | 1007.4 |
| 20260506090404 | 17 | 259 | 1.6 | 9.7 | 0.00 | 0.00 | 0.00 | 70 | 1007.3 |
| 20260506085905 | 17 | 325 | 1.6 | 9.7 | 0.00 | 0.00 | 0.00 | 70 | 1007.4 |
| 20260506085404 | 17 | 293 | 1.6 | 4.8 | 0.00 | 0.00 | 0.00 | 69 | 1007.5 |
| 20260506084906 | 18 | 275 | 1.6 | 4.8 | 0.00 | 0.00 | 0.00 | 69 | 1007.6 |
| 20260506083903 | 18 | 336 | 0.0 | 8.0 | 0.00 | 0.00 | 0.00 | 68 | 1007.5 |
| 20260506083405 | 18 | 307 | 1.6 | 8.0 | 0.00 | 0.00 | 0.00 | 68 | 1007.6 |
| 20260506082904 | 18 | 78 | 1.6 | 4.8 | 0.00 | 0.00 | 0.00 | 68 | 1007.6 |
| 20260506081904 | 18 | 319 | 0.0 | 4.8 | 0.00 | 0.00 | 0.00 | 66 | 1007.6 |
| 20260506081405 | 18 | 196 | 0.0 | 4.8 | 0.00 | 0.00 | 0.00 | 66 | 1007.6 |
| 20260506080901 | 18 | 329 | 0.0 | 4.8 | 0.00 | 0.00 | 0.00 | 65 | 1007.6 |
| 20260506073404 | 19 | 253 | 0.0 | 1.6 | 0.00 | 0.00 | 0.00 | 63 | 1007.8 |
| 20260506072904 | 19 | 253 | 0.0 | 1.6 | 0.00 | 0.00 | 0.00 | 63 | 1007.7 |
| 20260506072404 | 19 | 253 | 0.0 | 3.2 | 0.00 | 0.00 | 0.00 | 62 | 1007.7 |
| 20260506071904 | 19 | 286 | 1.6 | 3.2 | 0.00 | 0.00 | 0.00 | 62 | 1007.6 |
| 20260506071403 | 19 | 294 | 1.6 | 4.8 | 0.00 | 0.00 | 0.00 | 62 | 1007.6 |
| 20260506070903 | 19 | 317 | 1.6 | 4.8 | 0.00 | 0.00 | 0.00 | 62 | 1007.7 |
| 20260506070405 | 19 | 286 | 1.6 | 3.2 | 0.00 | 0.00 | 0.00 | 62 | 1007.7 |
| 20260506062403 | 20 | 269 | 1.6 | 4.8 | 0.00 | 0.00 | 0.00 | 61 | 1008.1 |
| 20260506061406 | 20 | 224 | 1.6 | 4.8 | 0.00 | 0.00 | 0.00 | 60 | 1008.1 |
| 20260506060904 | 20 | 302 | 1.6 | 4.8 | 0.00 | 0.00 | 0.00 | 60 | 1008.0 |
| 20260506060404 | 20 | 287 | 1.6 | 6.4 | 0.00 | 0.00 | 0.00 | 60 | 1008.0 |
| 20260506050901 | 20 | 269 | 1.6 | 6.4 | 0.00 | 0.00 | 0.00 | 59 | 1008.4 |
| 20260506044905 | 20 | 288 | 3.2 | 11.3 | 0.00 | 0.00 | 0.00 | 57 | 1008.5 |
| 20260506044404 | 20 | 284 | 3.2 | 11.3 | 0.00 | 0.00 | 0.00 | 57 | 1008.6 |
| 20260506043905 | 21 | 227 | 1.6 | 8.0 | 0.00 | 0.00 | 0.00 | 56 | 1008.5 |
| 20260506043404 | 21 | 227 | 1.6 | 4.8 | 0.00 | 0.00 | 0.00 | 55 | 1008.5 |
| 20260506042903 | 21 | 269 | 1.6 | 4.8 | 0.00 | 0.00 | 0.00 | 55 | 1008.6 |
| 20260506042404 | 21 | 243 | 1.6 | 4.8 | 0.00 | 0.00 | 0.00 | 54 | 1008.5 |
| 20260506041405 | 21 | 290 | 1.6 | 6.4 | 0.00 | 0.00 | 0.00 | 53 | 1008.5 |
| 20260506040904 | 21 | 269 | 1.6 | 6.4 | 0.00 | 0.00 | 0.00 | 52 | 1008.5 |
| 20260506035904 | 21 | 56 | 1.6 | 4.8 | 0.00 | 0.00 | 0.00 | 51 | 1008.4 |
| 20260506035405 | 21 | 347 | 1.6 | 9.7 | 0.00 | 0.00 | 0.00 | 51 | 1008.4 |
| 20260506034905 | 21 | 196 | 1.6 | 9.7 | 0.00 | 0.00 | 0.00 | 50 | 1008.5 |
| 20260506034405 | 21 | 229 | 1.6 | 8.0 | 0.00 | 0.00 | 0.00 | 50 | 1008.4 |
| 20260506033905 | 21 | 336 | 1.6 | 8.0 | 0.00 | 0.00 | 0.00 | 50 | 1008.4 |
| 20260506032905 | 21 | 267 | 1.6 | 6.4 | 0.00 | 0.00 | 0.00 | 50 | 1008.3 |
| 20260506031904 | 22 | 52 | 1.6 | 6.4 | 0.00 | 0.00 | 0.00 | 50 | 1008.4 |
| 20260506031404 | 22 | 254 | 1.6 | 4.8 | 0.00 | 0.00 | 0.00 | 49 | 1008.3 |
| 20260506030905 | 22 | 282 | 1.6 | 6.4 | 0.00 | 0.00 | 0.00 | 49 | 1008.4 |
| 20260506030404 | 22 | 256 | 3.2 | 6.4 | 0.00 | 0.00 | 0.00 | 48 | 1008.4 |
| 20260506025903 | 22 | 348 | 3.2 | 11.3 | 0.00 | 0.00 | 0.00 | 49 | 1008.5 |
| 20260506025406 | 22 | 277 | 3.2 | 11.3 | 0.00 | 0.00 | 0.00 | 48 | 1008.3 |
| 20260506024905 | 22 | 234 | 1.6 | 8.0 | 0.00 | 0.00 | 0.00 | 48 | 1008.1 |
| 20260506024407 | 22 | 234 | 1.6 | 6.4 | 0.00 | 0.00 | 0.00 | 48 | 1008.3 |
| 20260506023904 | 22 | 289 | 3.2 | 8.0 | 0.00 | 0.00 | 0.00 | 48 | 1008.1 |
| 20260506023405 | 22 | 202 | 3.2 | 12.9 | 0.00 | 0.00 | 0.00 | 47 | 1008.1 |
| 20260506022404 | 22 | 214 | 3.2 | 11.3 | 0.00 | 0.00 | 0.00 | 47 | 1008.1 |
| 20260506021906 | 22 | 309 | 3.2 | 12.9 | 0.00 | 0.00 | 0.00 | 47 | 1008.1 |
| 20260506021404 | 22 | 342 | 3.2 | 14.5 | 0.00 | 0.00 | 0.00 | 47 | 1008.1 |
| 20260506020904 | 22 | 268 | 3.2 | 14.5 | 0.00 | 0.00 | 0.00 | 47 | 1008.0 |
| 20260506015905 | 22 | 271 | 3.2 | 12.9 | 0.00 | 0.00 | 0.00 | 45 | 1008.1 |
| 20260506015405 | 22 | 336 | 3.2 | 12.9 | 0.00 | 0.00 | 0.00 | 45 | 1008.1 |
| 20260506014903 | 22 | 210 | 1.6 | 8.0 | 0.00 | 0.00 | 0.00 | 45 | 1008.1 |
| 20260506014405 | 22 | 240 | 1.6 | 8.0 | 0.00 | 0.00 | 0.00 | 44 | 1008.1 |
| 20260506013903 | 22 | 309 | 1.6 | 6.4 | 0.00 | 0.00 | 0.00 | 45 | 1008.1 |
| 20260506013404 | 22 | 216 | 1.6 | 11.3 | 0.00 | 0.00 | 0.00 | 44 | 1008.0 |
| 20260506012403 | 22 | 251 | 1.6 | 3.2 | 0.00 | 0.00 | 0.00 | 44 | 1007.9 |
| 20260506011906 | 22 | 255 | 1.6 | 6.4 | 0.00 | 0.00 | 0.00 | 44 | 1007.9 |
| 20260506010904 | 22 | 297 | 1.6 | 6.4 | 0.00 | 0.00 | 0.00 | 43 | 1007.7 |
| 20260506010404 | 22 | 307 | 1.6 | 6.4 | 0.00 | 0.00 | 0.00 | 43 | 1007.6 |
| 20260506005404 | 22 | 209 | 1.6 | 4.8 | 0.00 | 0.00 | 0.00 | 43 | 1007.5 |
| 20260506004905 | 23 | 212 | 1.6 | 9.7 | 0.00 | 0.00 | 0.00 | 42 | 1007.5 |
| 20260506004404 | 23 | 346 | 1.6 | 9.7 | 0.00 | 0.00 | 0.00 | 43 | 1007.6 |
| 20260506003904 | 23 | 5 | 1.6 | 8.0 | 0.00 | 0.00 | 0.00 | 43 | 1007.4 |
| 20260506003404 | 23 | 267 | 1.6 | 8.0 | 0.00 | 0.00 | 0.00 | 43 | 1007.6 |
| 20260506002903 | 23 | 283 | 1.6 | 8.0 | 0.00 | 0.00 | 0.00 | 42 | 1007.6 |
| 20260506002404 | 23 | 273 | 1.6 | 4.8 | 0.00 | 0.00 | 0.00 | 42 | 1007.4 |
| 20260506001904 | 23 | 321 | 1.6 | 4.8 | 0.00 | 0.00 | 0.00 | 42 | 1007.3 |
| 20260506001404 | 23 | 275 | 1.6 | 4.8 | 0.00 | 0.00 | 0.00 | 41 | 1007.2 |
| 20260506000906 | 23 | 273 | 1.6 | 4.8 | 0.00 | 0.00 | 0.00 | 41 | 1007.3 |
| 20260505235904 | 23 | 270 | 0.0 | 3.2 | 0.00 | 0.00 | 0.00 | 40 | 1007.2 |
| 20260505235402 | 24 | 270 | 1.6 | 4.8 | 0.00 | 0.00 | 0.00 | 40 | 1007.2 |
| 20260505234903 | 24 | 275 | 1.6 | 4.8 | 0.00 | 0.00 | 0.00 | 39 | 1007.1 |
| 20260505234404 | 24 | 293 | 1.6 | 6.4 | 0.00 | 0.00 | 0.00 | 40 | 1007.0 |
| 20260505233903 | 24 | 278 | 1.6 | 6.4 | 0.00 | 0.00 | 0.00 | 40 | 1007.1 |
| 20260505232909 | 25 | 214 | 1.6 | 3.2 | 0.00 | 0.00 | 0.00 | 39 | 1007.0 |
| 20260505232405 | 25 | 211 | 1.6 | 6.4 | 0.00 | 0.00 | 0.00 | 39 | 1006.7 |
| 20260505231905 | 25 | 281 | 3.2 | 6.4 | 0.00 | 0.00 | 0.00 | 38 | 1006.7 |
| 20260505231404 | 25 | 229 | 3.2 | 14.5 | 0.00 | 0.00 | 0.00 | 38 | 1006.6 |
| 20260505230403 | 25 | 298 | 3.2 | 11.3 | 0.00 | 0.00 | 0.00 | 38 | 1006.5 |
| 20260505225905 | 25 | 271 | 4.8 | 14.5 | 0.00 | 0.00 | 0.00 | 38 | 1006.6 |
| 20260505225404 | 25 | 239 | 3.2 | 14.5 | 0.00 | 0.00 | 0.00 | 38 | 1006.5 |
| 20260505224904 | 25 | 306 | 3.2 | 8.0 | 0.00 | 0.00 | 0.00 | 38 | 1006.3 |
| 20260505224404 | 25 | 244 | 3.2 | 8.0 | 0.00 | 0.00 | 0.00 | 37 | 1006.2 |
| 20260505223904 | 25 | 102 | 3.2 | 14.5 | 0.00 | 0.00 | 0.00 | 37 | 1006.3 |
| 20260505223404 | 25 | 355 | 3.2 | 14.5 | 0.00 | 0.00 | 0.00 | 37 | 1006.2 |
| 20260505222904 | 26 | 214 | 1.6 | 6.4 | 0.00 | 0.00 | 0.00 | 37 | 1006.1 |
| 20260505221855 | 26 | 229 | 4.8 | 17.7 | 0.00 | 0.00 | 0.00 | 36 | 1006.0 |
| 20260505221355 | 26 | 350 | 4.8 | 17.7 | 0.00 | 0.00 | 0.00 | 35 | 1006.1 |
| 20260505220855 | 26 | 248 | 3.2 | 9.7 | 0.00 | 0.00 | 0.00 | 36 | 1006.0 |
| 20260505220354 | 26 | 241 | 3.2 | 9.7 | 0.00 | 0.00 | 0.00 | 36 | 1006.0 |
| 20260505215857 | 26 | 200 | 3.2 | 12.9 | 0.00 | 0.00 | 0.00 | 35 | 1005.9 |
| 20260505215356 | 26 | 216 | 3.2 | 12.9 | 0.00 | 0.00 | 0.00 | 34 | 1005.8 |
| 20260505214856 | 26 | 252 | 3.2 | 11.3 | 0.00 | 0.00 | 0.00 | 35 | 1005.8 |
| 20260505214354 | 26 | 234 | 3.2 | 8.0 | 0.00 | 0.00 | 0.00 | 35 | 1005.7 |
| 20260505213855 | 26 | 259 | 3.2 | 8.0 | 0.00 | 0.00 | 0.00 | 35 | 1005.6 |
| 20260505213356 | 26 | 257 | 3.2 | 8.0 | 0.00 | 0.00 | 0.00 | 36 | 1005.6 |
| 20260505212851 | 27 | 215 | 3.2 | 11.3 | 0.00 | 0.00 | 0.00 | 35 | 1005.7 |
| 20260505212351 | 27 | 233 | 4.8 | 11.3 | 0.00 | 0.00 | 0.00 | 34 | 1005.6 |
| 20260505211854 | 27 | 243 | 4.8 | 11.3 | 0.00 | 0.00 | 0.00 | 33 | 1005.6 |
| 20260505211354 | 27 | 285 | 3.2 | 9.7 | 0.00 | 0.00 | 0.00 | 33 | 1005.6 |
| 20260505210852 | 27 | 101 | 3.2 | 8.0 | 0.00 | 0.00 | 0.00 | 34 | 1005.6 |
| 20260505210352 | 27 | 207 | 3.2 | 17.7 | 0.00 | 0.00 | 0.00 | 33 | 1005.5 |
| 20260505205854 | 27 | 319 | 4.8 | 17.7 | 0.00 | 0.00 | 0.00 | 34 | 1005.2 |
| 20260505205347 | 27 | 325 | 4.8 | 12.9 | 0.00 | 0.00 | 0.00 | 34 | 1005.2 |
| 20260505204847 | 27 | 235 | 4.8 | 12.9 | 0.00 | 0.00 | 0.00 | 34 | 1005.1 |
| 20260505204345 | 27 | 230 | 4.8 | 9.7 | 0.00 | 0.00 | 0.00 | 33 | 1005.2 |
| 20260505203847 | 28 | 252 | 4.8 | 12.9 | 0.00 | 0.00 | 0.00 | 33 | 1005.1 |
| 20260505203347 | 28 | 276 | 3.2 | 12.9 | 0.00 | 0.00 | 0.00 | 35 | 1005.1 |
| 20260505202846 | 28 | 236 | 3.2 | 11.3 | 0.00 | 0.00 | 0.00 | 36 | 1005.0 |
| 20260505202347 | 28 | 222 | 4.8 | 11.3 | 0.00 | 0.00 | 0.00 | 35 | 1005.2 |
| 20260505201348 | 28 | 314 | 4.8 | 11.3 | 0.00 | 0.00 | 0.00 | 34 | 1005.5 |
| 20260505200844 | 28 | 196 | 4.8 | 11.3 | 0.00 | 0.00 | 0.00 | 35 | 1005.7 |
| 20260505200344 | 28 | 232 | 3.2 | 11.3 | 0.00 | 0.00 | 0.00 | 34 | 1006.0 |
| 20260505195844 | 28 | 257 | 4.8 | 11.3 | 0.00 | 0.00 | 0.00 | 35 | 1005.9 |
| 20260505195344 | 28 | 274 | 4.8 | 9.7 | 0.00 | 0.00 | 0.00 | 34 | 1005.8 |
| 20260505194845 | 28 | 238 | 4.8 | 12.9 | 0.00 | 0.00 | 0.00 | 33 | 1005.9 |
| 20260505194345 | 28 | 242 | 4.8 | 12.9 | 0.00 | 0.00 | 0.00 | 34 | 1005.8 |
| 20260505193839 | 28 | 259 | 4.8 | 11.3 | 0.00 | 0.00 | 0.00 | 33 | 1006.0 |
| 20260505192841 | 28 | 240 | 4.8 | 12.9 | 0.00 | 0.00 | 0.00 | 34 | 1006.2 |
| 20260505192341 | 28 | 239 | 4.8 | 11.3 | 0.00 | 0.00 | 0.00 | 33 | 1006.2 |
| 20260505191840 | 28 | 201 | 4.8 | 9.7 | 0.00 | 0.00 | 0.00 | 37 | 1006.1 |
| 20260505191340 | 28 | 253 | 4.8 | 11.3 | 0.00 | 0.00 | 0.00 | 37 | 1006.3 |
| 20260505190340 | 28 | 223 | 3.2 | 6.4 | 0.00 | 0.00 | 0.00 | 39 | 1006.2 |
| 20260505185842 | 28 | 240 | 3.2 | 6.4 | 0.00 | 0.00 | 0.00 | 37 | 1006.3 |
| 20260505185338 | 28 | 232 | 4.8 | 12.9 | 0.00 | 0.00 | 0.00 | 37 | 1006.6 |
| 20260505184838 | 28 | 234 | 4.8 | 12.9 | 0.00 | 0.00 | 0.00 | 36 | 1006.6 |
| 20260505184338 | 28 | 233 | 4.8 | 11.3 | 0.00 | 0.00 | 0.00 | 35 | 1006.5 |
| 20260505183838 | 28 | 238 | 4.8 | 11.3 | 0.00 | 0.00 | 0.00 | 35 | 1006.6 |
| 20260505182839 | 28 | 222 | 4.8 | 12.9 | 0.00 | 0.00 | 0.00 | 35 | 1006.8 |
| 20260505182338 | 28 | 260 | 4.8 | 14.5 | 0.00 | 0.00 | 0.00 | 35 | 1006.8 |
| 20260505181838 | 28 | 193 | 4.8 | 14.5 | 0.00 | 0.00 | 0.00 | 37 | 1007.0 |
| 20260505181337 | 28 | 234 | 6.4 | 19.3 | 0.00 | 0.00 | 0.00 | 38 | 1007.0 |
| 20260505180837 | 28 | 267 | 6.4 | 19.3 | 0.00 | 0.00 | 0.00 | 34 | 1007.0 |
| 20260505180338 | 28 | 209 | 4.8 | 16.1 | 0.00 | 0.00 | 0.00 | 37 | 1007.0 |
| 20260505175838 | 28 | 285 | 4.8 | 16.1 | 0.00 | 0.00 | 0.00 | 35 | 1007.0 |
| 20260505175338 | 28 | 170 | 4.8 | 12.9 | 0.00 | 0.00 | 0.00 | 38 | 1007.0 |
| 20260505174338 | 28 | 300 | 4.8 | 9.7 | 0.00 | 0.00 | 0.00 | 40 | 1007.1 |
| 20260505173834 | 28 | 246 | 4.8 | 9.7 | 0.00 | 0.00 | 0.00 | 41 | 1007.3 |
| 20260505172334 | 28 | 269 | 3.2 | 14.5 | 0.00 | 0.00 | 0.00 | 42 | 1007.3 |
| 20260505171836 | 27 | 182 | 3.2 | 14.5 | 0.00 | 0.00 | 0.00 | 44 | 1007.2 |
| 20260505171333 | 27 | 300 | 3.2 | 12.9 | 0.00 | 0.00 | 0.00 | 43 | 1007.3 |
| 20260505170832 | 27 | 286 | 4.8 | 12.9 | 0.00 | 0.00 | 0.00 | 42 | 1007.4 |
| 20260505170333 | 27 | 221 | 3.2 | 9.7 | 0.00 | 0.00 | 0.00 | 42 | 1007.4 |
| 20260505164832 | 27 | 219 | 3.2 | 11.3 | 0.00 | 0.00 | 0.00 | 42 | 1007.7 |
| 20260505164333 | 27 | 302 | 3.2 | 11.3 | 0.00 | 0.00 | 0.00 | 42 | 1007.7 |
| 20260505163830 | 27 | 309 | 3.2 | 8.0 | 0.00 | 0.00 | 0.00 | 42 | 1007.9 |
| 20260505161332 | 26 | 211 | 3.2 | 8.0 | 0.00 | 0.00 | 0.00 | 44 | 1008.1 |
| 20260505160832 | 26 | 240 | 3.2 | 8.0 | 0.00 | 0.00 | 0.00 | 44 | 1008.4 |
| 20260505160332 | 26 | 261 | 3.2 | 8.0 | 0.00 | 0.00 | 0.00 | 45 | 1008.4 |
| 20260505153330 | 25 | 242 | 3.2 | 11.3 | 0.00 | 0.00 | 0.00 | 46 | 1008.8 |
| 20260505152833 | 25 | 219 | 3.2 | 9.7 | 0.00 | 0.00 | 0.00 | 45 | 1008.8 |
| 20260505151332 | 25 | 277 | 3.2 | 14.5 | 0.00 | 0.00 | 0.00 | 47 | 1008.8 |
| 20260505150833 | 25 | 252 | 3.2 | 14.5 | 0.00 | 0.00 | 0.00 | 48 | 1008.7 |
| 20260505150332 | 25 | 232 | 3.2 | 14.5 | 0.00 | 0.00 | 0.00 | 48 | 1008.7 |